ANZ112 YSSY-NZAA

Flight info

Callsign ANZ112
Flight time 2h 34m
Altitude 37000
Route EVONN L521 LUNBI
Aircraft B77W/H-SDE1E2E3FGHIJ2J3J4J5M1RWXY/LB1D1

Departure

Time 2026-05-07 08:46
Airport Sydney Kingsford Smith International Airport (YSSY)

Arrival

Time 2026-05-07 11:20
Airport Auckland International Airport (NZAA)
Time Latitude Longitude Altitude Speed Heading
2026-05-07 08:18 -33.94026 151.16540 35 ft 0 kts 344°
2026-05-07 08:34 -33.94028 151.16541 35 ft 3 kts 345°
2026-05-07 08:34 -33.94054 151.16548 35 ft 4 kts 353°
2026-05-07 08:34 -33.94081 151.16549 35 ft 4 kts
2026-05-07 08:35 -33.94107 151.16545 35 ft 4 kts 18°
2026-05-07 08:35 -33.94130 151.16531 35 ft 4 kts 49°
2026-05-07 08:35 -33.94137 151.16519 35 ft 0 kts 74°
2026-05-07 08:38 -33.94130 151.16548 35 ft 5 kts 74°
2026-05-07 08:39 -33.94121 151.16587 35 ft 5 kts 74°
2026-05-07 08:39 -33.94111 151.16632 35 ft 7 kts 74°
2026-05-07 08:39 -33.94096 151.16694 35 ft 9 kts 74°
2026-05-07 08:39 -33.94078 151.16772 35 ft 10 kts 74°
2026-05-07 08:40 -33.94059 151.16853 35 ft 10 kts 74°
2026-05-07 08:40 -33.94041 151.16931 35 ft 9 kts 74°
2026-05-07 08:40 -33.94024 151.17001 34 ft 9 kts 74°
2026-05-07 08:40 -33.94008 151.17070 34 ft 9 kts 74°
2026-05-07 08:41 -33.93989 151.17150 34 ft 12 kts 74°
2026-05-07 08:41 -33.93961 151.17268 33 ft 17 kts 74°
2026-05-07 08:41 -33.93926 151.17418 31 ft 19 kts 74°
2026-05-07 08:41 -33.93890 151.17570 33 ft 19 kts 74°
2026-05-07 08:42 -33.93853 151.17723 34 ft 19 kts 73°
2026-05-07 08:42 -33.93816 151.17876 35 ft 19 kts 74°
2026-05-07 08:42 -33.93781 151.18026 35 ft 19 kts 74°
2026-05-07 08:42 -33.93745 151.18179 35 ft 19 kts 74°
2026-05-07 08:43 -33.93709 151.18332 35 ft 19 kts 74°
2026-05-07 08:43 -33.93685 151.18435 35 ft 19 kts 74°
2026-05-07 08:43 -33.93636 151.18637 35 ft 18 kts 74°
2026-05-07 08:43 -33.93617 151.18720 35 ft 12 kts 74°
2026-05-07 08:44 -33.93594 151.18840 34 ft 10 kts 88°
2026-05-07 08:44 -33.93621 151.18919 34 ft 10 kts 135°
2026-05-07 08:44 -33.93692 151.18955 31 ft 13 kts 168°
2026-05-07 08:44 -33.93768 151.18909 30 ft 14 kts 246°
2026-05-07 08:45 -33.93819 151.18702 31 ft 44 kts 254°
2026-05-07 08:45 -33.93909 151.18322 34 ft 96 kts 254°
2026-05-07 08:45 -33.94158 151.17261 34 ft 164 kts 254°
2026-05-07 08:45 -33.94497 151.15834 512 ft 177 kts 254°
2026-05-07 08:46 -33.94835 151.14408 1319 ft 177 kts 255°
2026-05-07 08:46 -33.95177 151.12945 1837 ft 191 kts 253°
2026-05-07 08:46 -33.95600 151.11313 2125 ft 215 kts 252°
2026-05-07 08:46 -33.96045 151.09569 2796 ft 220 kts 252°
2026-05-07 08:47 -33.96478 151.07796 3652 ft 221 kts 252°
2026-05-07 08:47 -33.96904 151.06000 4389 ft 224 kts 252°
2026-05-07 08:47 -33.97610 151.04336 4987 ft 229 kts 225°
2026-05-07 08:47 -33.98975 151.03324 5499 ft 246 kts 197°
2026-05-07 08:48 -34.00717 151.03276 6108 ft 259 kts 171°
2026-05-07 08:48 -34.02495 151.03897 6808 ft 267 kts 164°
2026-05-07 08:48 -34.04242 151.04635 7545 ft 272 kts 163°
2026-05-07 08:48 -34.06030 151.05420 8339 ft 275 kts 163°
2026-05-07 08:49 -34.07795 151.06331 9020 ft 281 kts 148°
2026-05-07 08:49 -34.09097 151.08172 9590 ft 295 kts 114°
2026-05-07 08:49 -34.09463 151.10573 10286 ft 298 kts 95°
2026-05-07 08:49 -34.09637 151.13139 10595 ft 319 kts 97°
2026-05-07 08:50 -34.09905 151.15899 10802 ft 344 kts 98°
2026-05-07 08:50 -34.10222 151.18861 11099 ft 366 kts 98°
2026-05-07 08:50 -34.10561 151.21945 11802 ft 375 kts 98°
2026-05-07 08:50 -34.10911 151.25089 12757 ft 379 kts 98°
2026-05-07 08:51 -34.11266 151.28253 13706 ft 383 kts 98°
2026-05-07 08:51 -34.11627 151.31470 14516 ft 391 kts 97°
2026-05-07 08:51 -34.12000 151.34757 15323 ft 399 kts 97°
2026-05-07 08:51 -34.12373 151.38097 16132 ft 405 kts 96°
2026-05-07 08:52 -34.12748 151.41496 16910 ft 412 kts 96°
2026-05-07 08:52 -34.13131 151.44950 17679 ft 419 kts 96°
2026-05-07 08:52 -34.13523 151.48460 18425 ft 425 kts 95°
2026-05-07 08:52 -34.13921 151.52027 19146 ft 432 kts 95°
2026-05-07 08:53 -34.14327 151.55656 19832 ft 439 kts 95°
2026-05-07 08:53 -34.14736 151.59336 20497 ft 446 kts 95°
2026-05-07 08:53 -34.15150 151.63082 21141 ft 453 kts 94°
2026-05-07 08:53 -34.15568 151.66879 21799 ft 460 kts 94°
2026-05-07 08:54 -34.15982 151.70647 22382 ft 466 kts 94°
2026-05-07 08:54 -34.16419 151.74646 22988 ft 473 kts 94°
2026-05-07 08:54 -34.16852 151.78606 23577 ft 479 kts 94°
2026-05-07 08:54 -34.17289 151.82620 24137 ft 485 kts 94°
2026-05-07 08:55 -34.17730 151.86680 24715 ft 490 kts 94°
2026-05-07 08:55 -34.18174 151.90778 25315 ft 494 kts 94°
2026-05-07 08:55 -34.18621 151.94906 25894 ft 498 kts 94°
2026-05-07 08:55 -34.19070 151.99072 26443 ft 502 kts 94°
2026-05-07 08:56 -34.19673 152.03250 26977 ft 509 kts 99°
2026-05-07 08:56 -34.20602 152.07340 27444 ft 516 kts 106°
2026-05-07 08:56 -34.21803 152.11443 27935 ft 520 kts 107°
2026-05-07 08:56 -34.23038 152.15560 28403 ft 523 kts 108°
2026-05-07 08:57 -34.24284 152.19707 28885 ft 526 kts 108°
2026-05-07 08:57 -34.25527 152.23881 29348 ft 529 kts 107°
2026-05-07 08:57 -34.26764 152.28080 29766 ft 532 kts 107°
2026-05-07 08:57 -34.27998 152.32313 30140 ft 535 kts 107°
2026-05-07 08:58 -34.29231 152.36571 30545 ft 537 kts 107°
2026-05-07 08:58 -34.30459 152.40831 31073 ft 536 kts 107°
2026-05-07 08:58 -34.31682 152.45080 31581 ft 534 kts 108°
2026-05-07 08:58 -34.32900 152.49320 32069 ft 533 kts 108°
2026-05-07 08:59 -34.34115 152.53555 32528 ft 533 kts 108°
2026-05-07 08:59 -34.35328 152.57788 32972 ft 532 kts 108°
2026-05-07 08:59 -34.36538 152.62014 33418 ft 531 kts 108°
2026-05-07 08:59 -34.37744 152.66232 33837 ft 530 kts 108°
2026-05-07 09:00 -34.38949 152.70453 34224 ft 530 kts 108°
2026-05-07 09:00 -34.40153 152.74670 34612 ft 530 kts 108°
2026-05-07 09:00 -34.41352 152.78878 35011 ft 529 kts 108°
2026-05-07 09:00 -34.42550 152.83087 35381 ft 528 kts 108°
2026-05-07 09:01 -34.43743 152.87287 35735 ft 527 kts 108°
2026-05-07 09:01 -34.44934 152.91487 36069 ft 527 kts 108°
2026-05-07 09:01 -34.46122 152.95688 36369 ft 527 kts 108°
2026-05-07 09:01 -34.47310 152.99890 36651 ft 528 kts 108°
2026-05-07 09:02 -34.48497 153.04097 37007 ft 525 kts 108°
2026-05-07 09:02 -34.49678 153.08288 37123 ft 527 kts 108°
2026-05-07 09:02 -34.52022 153.16623 37094 ft 517 kts 108°
2026-05-07 09:03 -34.54328 153.24847 37107 ft 515 kts 108°
2026-05-07 09:03 -34.56630 153.33087 37119 ft 516 kts 109°
2026-05-07 09:04 -34.58928 153.41334 37105 ft 516 kts 109°
2026-05-07 09:04 -34.61222 153.49585 37102 ft 516 kts 109°
2026-05-07 09:05 -34.63492 153.57777 37085 ft 515 kts 108°
2026-05-07 09:05 -34.65784 153.66078 37096 ft 515 kts 108°
2026-05-07 09:06 -34.68039 153.74264 37089 ft 514 kts 108°
2026-05-07 09:06 -34.70302 153.82505 37087 ft 514 kts 108°
2026-05-07 09:07 -34.72560 153.90752 37081 ft 514 kts 108°
2026-05-07 09:07 -34.74811 153.99001 37085 ft 514 kts 108°
2026-05-07 09:08 -34.77058 154.07258 37079 ft 514 kts 108°
2026-05-07 09:08 -34.79299 154.15520 37086 ft 514 kts 108°
2026-05-07 09:09 -34.81539 154.23799 37086 ft 515 kts 108°
2026-05-07 09:09 -34.83773 154.32088 37079 ft 516 kts 108°
2026-05-07 09:10 -34.86004 154.40388 37074 ft 516 kts 107°
2026-05-07 09:10 -34.88229 154.48691 37074 ft 516 kts 107°
2026-05-07 09:11 -34.90448 154.56995 37072 ft 515 kts 107°
2026-05-07 09:11 -34.92659 154.65296 37074 ft 515 kts 107°
2026-05-07 09:12 -34.94849 154.73540 37073 ft 515 kts 107°
2026-05-07 09:12 -34.97045 154.81842 37064 ft 515 kts 107°
2026-05-07 09:13 -34.99236 154.90145 37062 ft 514 kts 107°
2026-05-07 09:13 -35.01420 154.98448 37068 ft 514 kts 107°
2026-05-07 09:14 -35.03597 155.06749 37064 ft 514 kts 107°
2026-05-07 09:14 -35.05770 155.15054 37058 ft 514 kts 107°
2026-05-07 09:15 -35.07938 155.23368 37053 ft 514 kts 107°
2026-05-07 09:15 -35.10100 155.31687 37054 ft 514 kts 106°
2026-05-07 09:16 -35.12255 155.40004 37058 ft 514 kts 106°
2026-05-07 09:16 -35.14405 155.48333 37055 ft 514 kts 106°
2026-05-07 09:17 -35.16547 155.56654 37044 ft 514 kts 106°
2026-05-07 09:17 -35.18686 155.64989 37049 ft 514 kts 106°
2026-05-07 09:18 -35.20803 155.73267 37046 ft 513 kts 106°
2026-05-07 09:18 -35.22928 155.81602 37055 ft 513 kts 106°
2026-05-07 09:19 -35.25045 155.89934 37058 ft 513 kts 106°
2026-05-07 09:19 -35.27158 155.98272 37052 ft 513 kts 106°
2026-05-07 09:20 -35.29264 156.06617 37042 ft 513 kts 105°
2026-05-07 09:20 -35.31366 156.14966 37048 ft 513 kts 105°
2026-05-07 09:21 -35.33458 156.23304 37047 ft 512 kts 105°
2026-05-07 09:21 -35.35544 156.31649 37042 ft 512 kts 105°
2026-05-07 09:22 -35.37624 156.39996 37041 ft 512 kts 105°
2026-05-07 09:22 -35.39700 156.48353 37033 ft 512 kts 105°
2026-05-07 09:23 -35.41768 156.56700 37042 ft 512 kts 105°
2026-05-07 09:23 -35.43831 156.65057 37034 ft 512 kts 105°
2026-05-07 09:24 -35.45885 156.73412 37028 ft 512 kts 105°
2026-05-07 09:24 -35.47937 156.81784 37028 ft 512 kts 105°
2026-05-07 09:25 -35.49984 156.90163 37029 ft 513 kts 105°
2026-05-07 09:25 -35.52026 156.98549 37028 ft 513 kts 105°
2026-05-07 09:26 -35.54065 157.06947 37027 ft 513 kts 105°
2026-05-07 09:26 -35.56097 157.15348 37004 ft 514 kts 105°
2026-05-07 09:27 -35.58127 157.23765 36987 ft 514 kts 104°
2026-05-07 09:28 -35.61139 157.36319 36978 ft 512 kts 104°
2026-05-07 09:28 -35.63145 157.44712 36980 ft 511 kts 104°
2026-05-07 09:29 -35.65144 157.53096 36973 ft 511 kts 104°
2026-05-07 09:29 -35.67133 157.61476 36971 ft 510 kts 104°
2026-05-07 09:30 -35.69115 157.69853 36973 ft 510 kts 104°
2026-05-07 09:30 -35.71088 157.78221 36970 ft 509 kts 104°
2026-05-07 09:31 -35.73053 157.86583 36973 ft 508 kts 104°
2026-05-07 09:31 -35.75011 157.94946 36973 ft 508 kts 104°
2026-05-07 09:32 -35.76963 158.03309 36974 ft 508 kts 104°
2026-05-07 09:32 -35.78764 158.11662 36961 ft 507 kts 100°
2026-05-07 09:33 -35.80227 158.20146 36963 ft 507 kts 99°
2026-05-07 09:33 -35.81642 158.28650 36964 ft 507 kts 99°
2026-05-07 09:34 -35.83074 158.37157 36964 ft 507 kts 99°
2026-05-07 09:34 -35.84517 158.45669 36964 ft 508 kts 99°
2026-05-07 09:35 -35.85962 158.54190 36963 ft 508 kts 99°
2026-05-07 09:35 -35.87160 158.61284 36965 ft 508 kts 99°
2026-05-07 09:36 -35.88836 158.71268 36963 ft 509 kts 99°
2026-05-07 09:36 -35.90022 158.78363 36963 ft 508 kts 99°
2026-05-07 09:37 -35.91444 158.86909 36958 ft 509 kts 99°
2026-05-07 09:37 -35.92860 158.95460 36953 ft 508 kts 99°
2026-05-07 09:38 -35.94268 159.04004 36954 ft 508 kts 99°
2026-05-07 09:38 -35.95667 159.12540 36952 ft 507 kts 99°
2026-05-07 09:39 -35.97062 159.21078 36931 ft 507 kts 99°
2026-05-07 09:39 -35.98449 159.29612 36928 ft 506 kts 99°
2026-05-07 09:40 -35.99828 159.38133 36927 ft 506 kts 99°
2026-05-07 09:40 -36.01198 159.46639 36929 ft 504 kts 99°
2026-05-07 09:41 -36.02559 159.55133 36929 ft 504 kts 99°
2026-05-07 09:41 -36.03912 159.63614 36927 ft 502 kts 99°
2026-05-07 09:42 -36.05255 159.72077 36929 ft 502 kts 99°
2026-05-07 09:42 -36.06581 159.80473 36929 ft 501 kts 99°
2026-05-07 09:43 -36.07911 159.88926 36918 ft 501 kts 99°
2026-05-07 09:43 -36.09233 159.97385 36928 ft 501 kts 99°
2026-05-07 09:44 -36.10551 160.05848 36928 ft 501 kts 99°
2026-05-07 09:44 -36.11862 160.14315 36928 ft 502 kts 98°
2026-05-07 09:45 -36.13170 160.22796 36922 ft 502 kts 98°
2026-05-07 09:45 -36.14472 160.31282 36930 ft 502 kts 98°
2026-05-07 09:46 -36.15760 160.39722 36928 ft 502 kts 98°
2026-05-07 09:46 -36.17051 160.48217 36924 ft 502 kts 98°
2026-05-07 09:47 -36.18337 160.56716 36910 ft 502 kts 98°
2026-05-07 09:47 -36.19614 160.65212 36929 ft 502 kts 98°
2026-05-07 09:48 -36.20884 160.73705 36928 ft 501 kts 98°
2026-05-07 09:48 -36.22149 160.82190 36927 ft 501 kts 98°
2026-05-07 09:49 -36.23405 160.90665 36930 ft 500 kts 98°
2026-05-07 09:49 -36.24652 160.99126 36929 ft 499 kts 98°
2026-05-07 09:50 -36.25891 161.07574 36916 ft 498 kts 98°
2026-05-07 09:50 -36.27121 161.16016 36928 ft 497 kts 98°
2026-05-07 09:51 -36.28346 161.24447 36911 ft 497 kts 98°
2026-05-07 09:51 -36.29563 161.32882 36929 ft 497 kts 98°
2026-05-07 09:52 -36.30775 161.41314 36911 ft 497 kts 98°
2026-05-07 09:52 -36.31980 161.49747 36914 ft 497 kts 98°
2026-05-07 09:53 -36.33179 161.58181 36929 ft 497 kts 98°
2026-05-07 09:53 -36.34372 161.66620 36927 ft 497 kts 98°
2026-05-07 09:54 -36.35561 161.75061 36912 ft 497 kts 98°
2026-05-07 09:54 -36.36741 161.83504 36928 ft 497 kts 98°
2026-05-07 09:55 -36.37910 161.91903 36928 ft 497 kts 98°
2026-05-07 09:55 -36.39080 162.00354 36929 ft 497 kts 98°
2026-05-07 09:56 -36.40244 162.08807 36927 ft 497 kts 98°
2026-05-07 09:56 -36.41403 162.17265 36929 ft 497 kts 98°
2026-05-07 09:57 -36.42555 162.25726 36930 ft 497 kts 98°
2026-05-07 09:57 -36.43700 162.34185 36928 ft 497 kts 98°
2026-05-07 09:58 -36.44840 162.42645 36924 ft 497 kts 98°
2026-05-07 09:58 -36.45974 162.51103 36930 ft 496 kts 98°
2026-05-07 09:59 -36.47100 162.59560 36928 ft 496 kts 98°
2026-05-07 09:59 -36.48219 162.68004 36920 ft 495 kts 98°
2026-05-07 10:00 -36.49331 162.76454 36934 ft 495 kts 98°
2026-05-07 10:00 -36.50436 162.84898 36937 ft 495 kts 98°
2026-05-07 10:01 -36.51538 162.93340 36935 ft 495 kts 97°
2026-05-07 10:01 -36.52632 163.01782 36936 ft 494 kts 97°
2026-05-07 10:02 -36.53716 163.10223 36936 ft 494 kts 97°
2026-05-07 10:02 -36.54792 163.18659 36933 ft 494 kts 97°
2026-05-07 10:03 -36.55862 163.27094 36934 ft 493 kts 97°
2026-05-07 10:03 -36.56925 163.35523 36936 ft 493 kts 97°
2026-05-07 10:04 -36.57975 163.43898 36936 ft 493 kts 97°
2026-05-07 10:04 -36.59029 163.52329 36933 ft 493 kts 97°
2026-05-07 10:05 -36.60074 163.60760 36935 ft 493 kts 97°
2026-05-07 10:05 -36.61113 163.69203 36936 ft 494 kts 97°
2026-05-07 10:06 -36.62148 163.77651 36936 ft 494 kts 97°
2026-05-07 10:06 -36.63176 163.86100 36935 ft 494 kts 97°
2026-05-07 10:07 -36.64200 163.94553 36935 ft 494 kts 97°
2026-05-07 10:07 -36.65217 164.03003 36935 ft 494 kts 97°
2026-05-07 10:08 -36.66228 164.11460 36936 ft 493 kts 97°
2026-05-07 10:08 -36.67233 164.19912 36933 ft 493 kts 97°
2026-05-07 10:09 -36.68229 164.28357 36934 ft 493 kts 97°
2026-05-07 10:09 -36.69219 164.36802 36934 ft 492 kts 97°
2026-05-07 10:10 -36.70205 164.45243 36935 ft 492 kts 97°
2026-05-07 10:10 -36.71177 164.53627 36934 ft 492 kts 97°
2026-05-07 10:11 -36.72155 164.62121 36936 ft 492 kts 97°
2026-05-07 10:11 -36.73114 164.70502 36935 ft 492 kts 96°
2026-05-07 10:12 -36.74072 164.78940 36936 ft 492 kts 96°
2026-05-07 10:12 -36.75026 164.87380 36936 ft 492 kts 96°
2026-05-07 10:13 -36.75973 164.95822 36937 ft 491 kts 96°
2026-05-07 10:13 -36.76914 165.04267 36935 ft 491 kts 96°
2026-05-07 10:14 -36.77848 165.12704 36936 ft 491 kts 96°
2026-05-07 10:14 -36.78778 165.21141 36935 ft 491 kts 96°
2026-05-07 10:15 -36.79699 165.29572 36936 ft 490 kts 96°
2026-05-07 10:15 -36.80607 165.37947 36935 ft 490 kts 96°
2026-05-07 10:16 -36.81514 165.46377 36936 ft 490 kts 96°
2026-05-07 10:16 -36.82418 165.54806 36935 ft 490 kts 96°
2026-05-07 10:17 -36.83315 165.63237 36935 ft 490 kts 96°
2026-05-07 10:17 -36.84206 165.71667 36936 ft 490 kts 96°
2026-05-07 10:18 -36.85092 165.80105 36936 ft 490 kts 96°
2026-05-07 10:18 -36.85970 165.88539 36935 ft 490 kts 96°
2026-05-07 10:19 -36.86842 165.96976 36935 ft 490 kts 96°
2026-05-07 10:19 -36.87709 166.05412 36935 ft 490 kts 96°
2026-05-07 10:20 -36.88568 166.13839 36985 ft 488 kts 96°
2026-05-07 10:20 -36.89418 166.22239 37073 ft 487 kts 96°
2026-05-07 10:21 -36.90263 166.30650 37083 ft 488 kts 95°
2026-05-07 10:21 -36.91104 166.39077 37093 ft 490 kts 95°
2026-05-07 10:22 -36.91942 166.47535 37085 ft 491 kts 95°
2026-05-07 10:22 -36.92775 166.56005 37083 ft 491 kts 95°
2026-05-07 10:23 -36.93596 166.64427 37084 ft 492 kts 95°
2026-05-07 10:23 -36.94419 166.72913 37090 ft 491 kts 95°
2026-05-07 10:24 -36.95234 166.81386 37091 ft 491 kts 95°
2026-05-07 10:24 -36.96042 166.89858 37102 ft 490 kts 95°
2026-05-07 10:25 -36.96843 166.98324 37088 ft 490 kts 95°
2026-05-07 10:25 -36.97638 167.06789 37088 ft 490 kts 95°
2026-05-07 10:26 -36.98426 167.15248 37101 ft 490 kts 95°
2026-05-07 10:26 -36.99208 167.23707 37100 ft 489 kts 95°
2026-05-07 10:27 -36.99853 167.30735 37100 ft 489 kts 95°
2026-05-07 10:27 -37.00624 167.39187 37144 ft 488 kts 95°
2026-05-07 10:28 -37.01388 167.47634 37148 ft 489 kts 95°
2026-05-07 10:28 -37.02147 167.56088 37148 ft 489 kts 94°
2026-05-07 10:29 -37.02900 167.64557 37149 ft 490 kts 94°
2026-05-07 10:29 -37.03649 167.73033 37148 ft 490 kts 94°
2026-05-07 10:30 -37.04760 167.85759 37158 ft 491 kts 94°
2026-05-07 10:30 -37.05489 167.94191 37157 ft 490 kts 94°
2026-05-07 10:31 -37.06217 168.02675 37176 ft 490 kts 94°
2026-05-07 10:31 -37.06937 168.11158 37188 ft 490 kts 94°
2026-05-07 10:32 -37.07651 168.19639 37188 ft 490 kts 94°
2026-05-07 10:32 -37.08360 168.28120 37187 ft 490 kts 94°
2026-05-07 10:33 -37.09062 168.36604 37187 ft 490 kts 94°
2026-05-07 10:33 -37.09758 168.45085 37184 ft 489 kts 94°
2026-05-07 10:34 -37.10448 168.53568 37187 ft 489 kts 94°
2026-05-07 10:34 -37.11131 168.62048 37182 ft 489 kts 94°
2026-05-07 10:35 -37.11807 168.70524 37186 ft 489 kts 94°
2026-05-07 10:35 -37.12480 168.79009 37186 ft 489 kts 94°
2026-05-07 10:36 -37.13146 168.87499 37143 ft 490 kts 94°
2026-05-07 10:36 -37.13806 168.95999 37138 ft 490 kts 94°
2026-05-07 10:37 -37.14460 169.04488 37144 ft 489 kts 94°
2026-05-07 10:37 -37.15107 169.12971 37148 ft 489 kts 94°
2026-05-07 10:38 -37.15743 169.21392 37135 ft 488 kts 94°
2026-05-07 10:38 -37.16377 169.29871 37116 ft 489 kts 94°
2026-05-07 10:39 -37.17005 169.38344 37110 ft 488 kts 94°
2026-05-07 10:39 -37.17626 169.46818 37116 ft 488 kts 94°
2026-05-07 10:40 -37.18241 169.55286 37108 ft 487 kts 94°
2026-05-07 10:40 -37.18849 169.63748 37109 ft 487 kts 94°
2026-05-07 10:41 -37.19451 169.72209 37110 ft 487 kts 94°
2026-05-07 10:41 -37.20047 169.80667 37121 ft 487 kts 94°
2026-05-07 10:42 -37.20638 169.89126 37120 ft 487 kts 93°
2026-05-07 10:42 -37.21220 169.97583 37125 ft 487 kts 93°
2026-05-07 10:43 -37.21798 170.06046 37126 ft 487 kts 94°
2026-05-07 10:43 -37.22367 170.14448 37122 ft 487 kts 93°
2026-05-07 10:44 -37.22933 170.22906 37124 ft 486 kts 93°
2026-05-07 10:44 -37.23491 170.31359 37131 ft 486 kts 93°
2026-05-07 10:45 -37.24044 170.39813 37128 ft 486 kts 93°
2026-05-07 10:45 -37.24591 170.48259 37130 ft 486 kts 93°
2026-05-07 10:46 -37.25132 170.56709 37129 ft 486 kts 93°
2026-05-07 10:46 -37.25666 170.65156 37129 ft 485 kts 93°
2026-05-07 10:47 -37.25731 170.73606 37144 ft 483 kts 86°
2026-05-07 10:47 -37.25377 170.82033 37140 ft 483 kts 85°
2026-05-07 10:48 -37.25030 170.90468 37138 ft 484 kts 86°
2026-05-07 10:48 -37.24752 170.98909 37139 ft 484 kts 86°
2026-05-07 10:49 -37.24502 171.07349 37138 ft 484 kts 86°
2026-05-07 10:49 -37.24251 171.15733 37147 ft 484 kts 86°
2026-05-07 10:50 -37.23990 171.24167 37149 ft 484 kts 86°
2026-05-07 10:50 -37.23720 171.32598 37147 ft 483 kts 86°
2026-05-07 10:51 -37.23443 171.41030 37148 ft 483 kts 86°
2026-05-07 10:51 -37.23161 171.49456 37149 ft 483 kts 86°
2026-05-07 10:52 -37.22874 171.57879 37154 ft 483 kts 86°
2026-05-07 10:52 -37.22580 171.66293 37160 ft 482 kts 86°
2026-05-07 10:53 -37.22283 171.74643 36865 ft 476 kts 86°
2026-05-07 10:53 -37.22133 171.78778 36437 ft 472 kts 85°
2026-05-07 10:53 -37.21985 171.82861 36027 ft 467 kts 85°
2026-05-07 10:54 -37.21837 171.86910 35590 ft 463 kts 85°
2026-05-07 10:54 -37.21689 171.90923 35161 ft 459 kts 85°
2026-05-07 10:54 -37.21539 171.94901 34741 ft 454 kts 85°
2026-05-07 10:54 -37.21390 171.98845 34306 ft 451 kts 85°
2026-05-07 10:55 -37.21243 172.02703 33884 ft 447 kts 85°
2026-05-07 10:55 -37.21094 172.06583 33455 ft 444 kts 85°
2026-05-07 10:55 -37.20944 172.10428 33026 ft 440 kts 85°
2026-05-07 10:55 -37.20795 172.14248 32602 ft 437 kts 85°
2026-05-07 10:56 -37.20645 172.18042 32178 ft 433 kts 85°
2026-05-07 10:56 -37.20495 172.21794 31756 ft 430 kts 85°
2026-05-07 10:56 -37.20346 172.25530 31337 ft 427 kts 85°
2026-05-07 10:56 -37.20196 172.29235 30918 ft 424 kts 85°
2026-05-07 10:57 -37.20046 172.32913 30504 ft 421 kts 85°
2026-05-07 10:57 -37.19897 172.36564 30089 ft 418 kts 85°
2026-05-07 10:57 -37.19747 172.40191 29674 ft 415 kts 85°
2026-05-07 10:57 -37.19597 172.43798 29252 ft 413 kts 85°
2026-05-07 10:58 -37.19447 172.47380 28832 ft 410 kts 85°
2026-05-07 10:58 -37.19295 172.50940 28411 ft 408 kts 85°
2026-05-07 10:58 -37.19144 172.54482 27997 ft 405 kts 85°
2026-05-07 10:58 -37.18994 172.57998 27584 ft 403 kts 85°
2026-05-07 10:59 -37.18843 172.61498 27168 ft 401 kts 85°
2026-05-07 10:59 -37.18692 172.64979 26754 ft 399 kts 85°
2026-05-07 10:59 -37.18541 172.68440 26346 ft 396 kts 85°
2026-05-07 10:59 -37.18389 172.71881 25940 ft 394 kts 85°
2026-05-07 11:00 -37.18235 172.75311 25537 ft 393 kts 85°
2026-05-07 11:00 -37.18083 172.78722 25144 ft 390 kts 85°
2026-05-07 11:00 -37.17931 172.82109 24732 ft 388 kts 85°
2026-05-07 11:00 -37.17778 172.85473 24311 ft 386 kts 85°
2026-05-07 11:01 -37.17629 172.88821 23939 ft 384 kts 85°
2026-05-07 11:01 -37.17478 172.92157 23547 ft 383 kts 85°
2026-05-07 11:01 -37.17326 172.95481 23152 ft 381 kts 85°
2026-05-07 11:01 -37.17173 172.98795 22750 ft 380 kts 85°
2026-05-07 11:02 -37.17018 173.02093 22359 ft 378 kts 85°
2026-05-07 11:02 -37.16864 173.05377 21967 ft 376 kts 85°
2026-05-07 11:02 -37.16709 173.08641 21577 ft 375 kts 85°
2026-05-07 11:02 -37.16555 173.11894 21185 ft 373 kts 85°
2026-05-07 11:03 -37.16401 173.15134 20819 ft 372 kts 85°
2026-05-07 11:03 -37.16244 173.18382 20422 ft 376 kts 85°
2026-05-07 11:03 -37.16084 173.21689 20020 ft 385 kts 85°
2026-05-07 11:03 -37.15920 173.25074 19590 ft 391 kts 85°
2026-05-07 11:04 -37.15754 173.28474 19151 ft 391 kts 85°
2026-05-07 11:04 -37.15589 173.31866 18702 ft 389 kts 85°
2026-05-07 11:04 -37.15422 173.35239 18267 ft 387 kts 85°
2026-05-07 11:04 -37.15256 173.38597 17837 ft 385 kts 85°
2026-05-07 11:05 -37.15090 173.41938 17413 ft 383 kts 85°
2026-05-07 11:05 -37.14922 173.45264 16963 ft 382 kts 85°
2026-05-07 11:05 -37.14735 173.48581 16444 ft 382 kts 84°
2026-05-07 11:05 -37.14534 173.51913 15902 ft 384 kts 84°
2026-05-07 11:06 -37.14332 173.55235 15442 ft 382 kts 84°
2026-05-07 11:06 -37.14155 173.58145 15046 ft 381 kts 84°
2026-05-07 11:06 -37.13956 173.61445 14597 ft 379 kts 85°
2026-05-07 11:06 -37.13758 173.64734 14153 ft 377 kts 85°
2026-05-07 11:07 -37.13561 173.68002 13704 ft 375 kts 84°
2026-05-07 11:07 -37.13363 173.71255 13282 ft 373 kts 84°
2026-05-07 11:07 -37.13170 173.74426 12908 ft 369 kts 84°
2026-05-07 11:07 -37.12973 173.77658 12480 ft 366 kts 84°
2026-05-07 11:08 -37.12780 173.80788 12072 ft 364 kts 84°
2026-05-07 11:08 -37.12587 173.83937 11672 ft 361 kts 84°
2026-05-07 11:08 -37.12393 173.87065 11266 ft 358 kts 84°
2026-05-07 11:08 -37.12199 173.90173 10835 ft 355 kts 84°
2026-05-07 11:09 -37.12007 173.93234 10535 ft 349 kts 84°
2026-05-07 11:09 -37.11818 173.96225 10353 ft 339 kts 84°
2026-05-07 11:09 -37.11634 173.99128 10193 ft 329 kts 84°
2026-05-07 11:09 -37.11455 174.01944 10050 ft 320 kts 84°
2026-05-07 11:10 -37.11281 174.04684 9835 ft 313 kts 84°
2026-05-07 11:10 -37.11110 174.07358 9657 ft 305 kts 84°
2026-05-07 11:10 -37.10941 174.09972 9464 ft 295 kts 84°
2026-05-07 11:10 -37.10778 174.12510 8932 ft 292 kts 84°
2026-05-07 11:11 -37.10616 174.15019 8510 ft 285 kts 84°
2026-05-07 11:11 -37.10459 174.17459 8176 ft 279 kts 84°
2026-05-07 11:11 -37.10303 174.19873 7860 ft 278 kts 84°
2026-05-07 11:11 -37.10147 174.22278 7543 ft 276 kts 84°
2026-05-07 11:12 -37.09991 174.24672 7233 ft 275 kts 84°
2026-05-07 11:12 -37.09836 174.27058 6921 ft 274 kts 84°
2026-05-07 11:12 -37.09681 174.29430 6611 ft 273 kts 84°
2026-05-07 11:12 -37.09525 174.31794 6300 ft 272 kts 84°
2026-05-07 11:13 -37.09368 174.34149 5990 ft 271 kts 84°
2026-05-07 11:13 -37.09211 174.36491 5682 ft 270 kts 84°
2026-05-07 11:13 -37.09055 174.38829 5373 ft 269 kts 83°
2026-05-07 11:13 -37.08899 174.41156 5068 ft 268 kts 83°
2026-05-07 11:14 -37.08742 174.43477 4761 ft 267 kts 83°
2026-05-07 11:14 -37.08587 174.45787 4455 ft 266 kts 83°
2026-05-07 11:14 -37.08433 174.48068 4289 ft 258 kts 83°
2026-05-07 11:14 -37.08284 174.50275 4159 ft 250 kts 83°
2026-05-07 11:15 -37.08139 174.52419 3950 ft 244 kts 83°
2026-05-07 11:15 -37.07839 174.54479 3683 ft 239 kts 72°
2026-05-07 11:15 -37.07327 174.56444 3388 ft 237 kts 69°
2026-05-07 11:15 -37.06778 174.58386 3086 ft 236 kts 69°
2026-05-07 11:16 -37.06253 174.60277 2796 ft 224 kts 69°
2026-05-07 11:16 -37.05759 174.62073 2477 ft 212 kts 70°
2026-05-07 11:16 -37.05303 174.63730 2246 ft 195 kts 69°
2026-05-07 11:16 -37.04878 174.65276 1955 ft 181 kts 69°
2026-05-07 11:17 -37.04487 174.66700 1715 ft 165 kts 69°
2026-05-07 11:17 -37.04126 174.68004 1517 ft 155 kts 69°
2026-05-07 11:17 -37.03776 174.69275 1347 ft 155 kts 69°
2026-05-07 11:17 -37.03431 174.70532 1111 ft 150 kts 69°
2026-05-07 11:18 -37.03095 174.71752 921 ft 147 kts 70°
2026-05-07 11:18 -37.02763 174.72960 733 ft 148 kts 70°
2026-05-07 11:18 -37.02424 174.74194 541 ft 151 kts 70°
2026-05-07 11:18 -37.02084 174.75430 331 ft 149 kts 71°
2026-05-07 11:19 -37.01752 174.76644 148 ft 146 kts 69°
2026-05-07 11:19 -37.01420 174.77850 33 ft 143 kts 70°
2026-05-07 11:19 -37.01135 174.78878 30 ft 100 kts 71°
2026-05-07 11:19 -37.01012 174.79327 30 ft 65 kts 71°
2026-05-07 11:20 -37.00903 174.79718 30 ft 36 kts 71°
2026-05-07 11:20 -37.00838 174.79956 30 ft 21 kts 71°
2026-05-07 11:20 -37.00802 174.80086 30 ft 13 kts 67°
2026-05-07 11:20 -37.00744 174.80127 30 ft 10 kts 343°
2026-05-07 11:21 -37.00696 174.80071 30 ft 10 kts 311°
2026-05-07 11:21 -37.00652 174.80009 30 ft 10 kts 316°
2026-05-07 11:21 -37.00594 174.79968 30 ft 10 kts 332°
2026-05-07 11:21 -37.00574 174.79895 30 ft 10 kts 258°
2026-05-07 11:22 -37.00595 174.79814 30 ft 10 kts 251°
2026-05-07 11:22 -37.00619 174.79727 30 ft 12 kts 251°
2026-05-07 11:22 -37.00647 174.79625 30 ft 13 kts 251°
2026-05-07 11:22 -37.00676 174.79518 30 ft 13 kts 250°
2026-05-07 11:23 -37.00708 174.79405 30 ft 14 kts 250°
2026-05-07 11:23 -37.00741 174.79287 30 ft 15 kts 250°
2026-05-07 11:23 -37.00774 174.79164 30 ft 15 kts 252°
2026-05-07 11:23 -37.00809 174.79037 30 ft 16 kts 250°
2026-05-07 11:24 -37.00846 174.78907 30 ft 16 kts 251°
2026-05-07 11:24 -37.00883 174.78771 30 ft 17 kts 251°
2026-05-07 11:24 -37.00921 174.78632 30 ft 17 kts 251°
2026-05-07 11:24 -37.00959 174.78494 30 ft 17 kts 251°
2026-05-07 11:25 -37.00992 174.78364 30 ft 13 kts 257°
2026-05-07 11:25 -37.00994 174.78271 30 ft 11 kts 289°
2026-05-07 11:25 -37.00951 174.78195 29 ft 11 kts 305°
2026-05-07 11:25 -37.00914 174.78115 30 ft 11 kts 299°
2026-05-07 11:26 -37.00867 174.78045 30 ft 11 kts 327°
2026-05-07 11:26 -37.00799 174.78012 30 ft 11 kts 345°
2026-05-07 11:26 -37.00726 174.78019 30 ft 11 kts 21°
2026-05-07 11:26 -37.00662 174.78046 30 ft 7 kts 18°
2026-05-07 11:27 -37.00636 174.78085 30 ft 5 kts 82°
2026-05-07 11:27 -37.00649 174.78124 30 ft 5 kts 117°
2026-05-07 11:27 -37.00658 174.78145 30 ft 1 kts 118°
2026-05-07 11:27 -37.00662 174.78156 30 ft 1 kts 118°
2026-05-07 11:28 -37.00663 174.78157 30 ft 0 kts 118°